Retour au catalogue

DELTA 1 DEB

ActifPO
NORAD 21272·DEBRIS·🇺🇸 United States

Lancé Jun 12, 1975 depuis Vandenberg Space Force Base

Loading…

Prochains Passages (prochaines 24 heures)

TLE

FraisSource: Space-Track

Époque: Sep 14, 2026, 07:41 UTC

1 21272U 75052H   26257.32060911 -.00000309  00000-0 -80143-3 0  9990
2 21272  99.8833  27.0295 0308500  63.6189 327.3457 12.93347247601156

Suivez DELTA 1 DEB en temps réel avec AllMySat

Download on the App Store